| time (UTC) | temp F | wind direction | speed MPH | gust MPH | rain 1hr in | rain 24hr in | rain mn in | humidity % | barometer mb |
| 20260507223323 | 61 | 233 | 8.0 | 15.0 | 0.00 | 0.09 | 0.09 | 53 | 1008.5 |
| 20260507222813 | 61 | 210 | 7.0 | 13.0 | 0.00 | 0.09 | 0.09 | 52 | 1008.5 |
| 20260507222328 | 62 | 203 | 6.0 | 12.0 | 0.00 | 0.09 | 0.09 | 51 | 1008.5 |
| 20260507221839 | 62 | 153 | 3.0 | 11.0 | 0.00 | 0.09 | 0.09 | 51 | 1008.5 |
| 20260507221314 | 63 | 190 | 4.0 | 9.0 | 0.00 | 0.09 | 0.09 | 49 | 1008.5 |
| 20260507220826 | 63 | 202 | 3.0 | 7.0 | 0.00 | 0.09 | 0.09 | 50 | 1008.5 |
| 20260507220317 | 63 | 211 | 2.0 | 8.0 | 0.00 | 0.09 | 0.09 | 50 | 1008.4 |
| 20260507215849 | 63 | 148 | 3.0 | 8.0 | 0.00 | 0.09 | 0.09 | 49 | 1008.5 |
| 20260507215323 | 62 | 155 | 3.0 | 12.0 | 0.00 | 0.09 | 0.09 | 47 | 1008.5 |
| 20260507214837 | 62 | 180 | 6.0 | 12.0 | 0.00 | 0.09 | 0.09 | 46 | 1008.6 |
| 20260507213830 | 62 | 157 | 6.0 | 13.0 | 0.00 | 0.09 | 0.09 | 45 | 1008.5 |
| 20260507213321 | 62 | 233 | 5.0 | 13.0 | 0.00 | 0.09 | 0.09 | 45 | 1008.5 |
| 20260507212815 | 62 | 189 | 4.0 | 9.0 | 0.00 | 0.09 | 0.09 | 48 | 1008.4 |
| 20260507212347 | 62 | 150 | 4.0 | 9.0 | 0.00 | 0.09 | 0.09 | 46 | 1008.2 |
| 20260507211821 | 63 | 173 | 6.0 | 12.0 | 0.00 | 0.09 | 0.09 | 45 | 1008.2 |
| 20260507211316 | 62 | 142 | 6.0 | 12.0 | 0.00 | 0.09 | 0.09 | 43 | 1008.2 |
| 20260507210826 | 63 | 153 | 5.0 | 12.0 | 0.00 | 0.09 | 0.09 | 44 | 1008.3 |
| 20260507210318 | 63 | 196 | 5.0 | 10.0 | 0.00 | 0.09 | 0.09 | 45 | 1008.3 |
| 20260507205830 | 63 | 161 | 5.0 | 10.0 | 0.00 | 0.09 | 0.09 | 45 | 1008.2 |
| 20260507205321 | 63 | 146 | 4.0 | 10.0 | 0.00 | 0.09 | 0.09 | 43 | 1008.2 |
| 20260507204833 | 64 | 186 | 4.0 | 9.0 | 0.00 | 0.09 | 0.09 | 43 | 1008.1 |
| 20260507204324 | 64 | 189 | 4.0 | 9.0 | 0.00 | 0.09 | 0.09 | 43 | 1008.2 |
| 20260507203820 | 64 | 155 | 4.0 | 11.0 | 0.00 | 0.09 | 0.09 | 45 | 1008.1 |
| 20260507203333 | 63 | 146 | 4.0 | 11.0 | 0.00 | 0.09 | 0.09 | 46 | 1008.1 |
| 20260507202824 | 64 | 167 | 4.0 | 8.0 | 0.00 | 0.09 | 0.09 | 46 | 1008.1 |
| 20260507202315 | 64 | 194 | 3.0 | 8.0 | 0.00 | 0.09 | 0.09 | 47 | 1008.2 |
| 20260507201826 | 63 | 170 | 4.0 | 8.0 | 0.00 | 0.09 | 0.09 | 45 | 1008.3 |
| 20260507201321 | 63 | 140 | 3.0 | 11.0 | 0.00 | 0.09 | 0.09 | 45 | 1008.2 |
| 20260507200815 | 63 | 136 | 6.0 | 11.0 | 0.00 | 0.09 | 0.09 | 45 | 1008.3 |
| 20260507200326 | 63 | 150 | 5.0 | 10.0 | 0.00 | 0.09 | 0.09 | 46 | 1008.4 |
| 20260507195822 | 63 | 169 | 4.0 | 10.0 | 0.00 | 0.09 | 0.09 | 46 | 1008.4 |
| 20260507195333 | 63 | 155 | 3.0 | 9.0 | 0.00 | 0.09 | 0.09 | 46 | 1008.3 |
| 20260507194824 | 63 | 182 | 4.0 | 9.0 | 0.00 | 0.09 | 0.09 | 51 | 1008.4 |
| 20260507194315 | 63 | 125 | 5.0 | 9.0 | 0.00 | 0.09 | 0.09 | 48 | 1008.6 |
| 20260507193829 | 63 | 146 | 6.0 | 9.0 | 0.00 | 0.09 | 0.09 | 43 | 1008.6 |
| 20260507193340 | 63 | 120 | 4.0 | 8.0 | 0.00 | 0.09 | 0.09 | 43 | 1008.7 |
| 20260507192830 | 64 | 139 | 3.0 | 7.0 | 0.00 | 0.09 | 0.09 | 43 | 1008.8 |
| 20260507192322 | 63 | 120 | 4.0 | 7.0 | 0.00 | 0.09 | 0.09 | 47 | 1008.9 |
| 20260507191834 | 63 | 134 | 2.0 | 10.0 | 0.00 | 0.09 | 0.09 | 49 | 1008.7 |
| 20260507191345 | 63 | 102 | 4.0 | 10.0 | 0.00 | 0.09 | 0.09 | 49 | 1008.6 |
| 20260507190819 | 63 | 186 | 2.0 | 8.0 | 0.00 | 0.09 | 0.09 | 49 | 1008.6 |
| 20260507190330 | 63 | 126 | 4.0 | 9.0 | 0.00 | 0.09 | 0.09 | 48 | 1008.7 |
| 20260507185822 | 63 | 117 | 3.0 | 9.0 | 0.00 | 0.09 | 0.09 | 49 | 1008.8 |
| 20260507185334 | 63 | 149 | 3.0 | 9.0 | 0.00 | 0.09 | 0.09 | 50 | 1009.1 |
| 20260507184825 | 63 | 117 | 3.0 | 8.0 | 0.00 | 0.09 | 0.09 | 51 | 1009.3 |
| 20260507184316 | 63 | 134 | 3.0 | 9.0 | 0.00 | 0.09 | 0.09 | 52 | 1009.1 |
| 20260507183323 | 62 | 128 | 7.0 | 10.0 | 0.00 | 0.09 | 0.09 | 49 | 1009.2 |
| 20260507182818 | 62 | 144 | 4.0 | 9.0 | 0.00 | 0.09 | 0.09 | 51 | 1009.1 |
| 20260507182330 | 62 | 109 | 2.0 | 8.0 | 0.00 | 0.09 | 0.09 | 52 | 1009.4 |
| 20260507181820 | 62 | 134 | 5.0 | 8.0 | 0.00 | 0.09 | 0.09 | 53 | 1009.4 |
| 20260507181332 | 61 | 160 | 5.0 | 8.0 | 0.00 | 0.09 | 0.09 | 50 | 1009.4 |
| 20260507180824 | 62 | 109 | 4.0 | 8.0 | 0.00 | 0.09 | 0.09 | 52 | 1009.3 |
| 20260507180334 | 62 | 205 | 3.0 | 8.0 | 0.00 | 0.09 | 0.09 | 55 | 1009.5 |
| 20260507175846 | 63 | 127 | 3.0 | 10.0 | 0.00 | 0.09 | 0.09 | 56 | 1009.5 |
| 20260507175337 | 63 | 142 | 5.0 | 10.0 | 0.00 | 0.09 | 0.09 | 55 | 1009.4 |
| 20260507174827 | 62 | 111 | 4.0 | 9.0 | 0.00 | 0.09 | 0.09 | 54 | 1009.6 |
| 20260507174321 | 62 | 141 | 2.0 | 9.0 | 0.00 | 0.09 | 0.09 | 57 | 1009.7 |
| 20260507173817 | 61 | 137 | 2.0 | 8.0 | 0.00 | 0.09 | 0.09 | 55 | 1009.7 |
| 20260507173327 | 62 | 143 | 4.0 | 8.0 | 0.00 | 0.09 | 0.09 | 57 | 1009.9 |
| 20260507172839 | 62 | 159 | 5.0 | 9.0 | 0.00 | 0.09 | 0.09 | 54 | 1010.0 |
| 20260507172332 | 62 | 121 | 3.0 | 7.0 | 0.00 | 0.09 | 0.09 | 56 | 1010.1 |
| 20260507171823 | 62 | 159 | 1.0 | 7.0 | 0.00 | 0.09 | 0.09 | 52 | 1010.1 |
| 20260507171318 | 63 | 111 | 2.0 | 7.0 | 0.00 | 0.09 | 0.09 | 55 | 1010.2 |
| 20260507170829 | 62 | 101 | 2.0 | 8.0 | 0.00 | 0.09 | 0.09 | 56 | 1010.1 |
| 20260507170341 | 62 | 144 | 3.0 | 8.0 | 0.00 | 0.09 | 0.09 | 56 | 1010.0 |
| 20260507165830 | 62 | 61 | 2.0 | 7.0 | 0.00 | 0.09 | 0.09 | 56 | 1010.1 |
| 20260507165321 | 62 | 38 | 2.0 | 8.0 | 0.00 | 0.09 | 0.09 | 57 | 1010.0 |
| 20260507164840 | 61 | 63 | 5.0 | 8.0 | 0.00 | 0.09 | 0.09 | 54 | 1010.2 |
| 20260507164350 | 61 | 76 | 3.0 | 9.0 | 0.00 | 0.09 | 0.09 | 54 | 1010.3 |
| 20260507163821 | 61 | 72 | 4.0 | 9.0 | 0.00 | 0.09 | 0.09 | 54 | 1010.3 |
| 20260507163333 | 61 | 39 | 3.0 | 9.0 | 0.00 | 0.09 | 0.09 | 58 | 1010.5 |
| 20260507162844 | 61 | 86 | 2.0 | 9.0 | 0.00 | 0.09 | 0.09 | 60 | 1010.5 |
| 20260507162354 | 61 | 355 | 4.0 | 7.0 | 0.00 | 0.09 | 0.09 | 58 | 1010.5 |
| 20260507161824 | 62 | 118 | 1.0 | 6.0 | 0.00 | 0.09 | 0.09 | 55 | 1010.4 |
| 20260507161316 | 62 | 56 | 2.0 | 6.0 | 0.00 | 0.09 | 0.09 | 57 | 1010.6 |
| 20260507160827 | 62 | 58 | 2.0 | 5.0 | 0.00 | 0.09 | 0.09 | 55 | 1010.7 |
| 20260507160318 | 62 | 21 | 2.0 | 6.0 | 0.00 | 0.09 | 0.09 | 56 | 1010.9 |
| 20260507155816 | 63 | 31 | 2.0 | 9.0 | 0.00 | 0.09 | 0.09 | 58 | 1010.7 |
| 20260507155327 | 63 | 96 | 4.0 | 9.0 | 0.00 | 0.09 | 0.09 | 54 | 1010.7 |
| 20260507154818 | 63 | 157 | 2.0 | 10.0 | 0.00 | 0.09 | 0.09 | 52 | 1011.0 |
| 20260507154329 | 63 | 302 | 4.0 | 10.0 | 0.00 | 0.09 | 0.09 | 51 | 1011.1 |
| 20260507153824 | 62 | 300 | 3.0 | 9.0 | 0.00 | 0.09 | 0.09 | 53 | 1011.1 |
| 20260507153336 | 61 | 24 | 3.0 | 7.0 | 0.00 | 0.09 | 0.09 | 55 | 1011.2 |
| 20260507152826 | 61 | 53 | 3.0 | 8.0 | 0.00 | 0.09 | 0.09 | 53 | 1011.3 |
| 20260507152338 | 61 | 30 | 5.0 | 10.0 | 0.00 | 0.09 | 0.09 | 56 | 1011.5 |
| 20260507151827 | 60 | 12 | 5.0 | 10.0 | 0.00 | 0.09 | 0.09 | 59 | 1011.5 |
| 20260507151319 | 59 | 333 | 3.0 | 12.0 | 0.00 | 0.09 | 0.09 | 62 | 1011.6 |
| 20260507150814 | 59 | 5 | 5.0 | 14.0 | 0.00 | 0.09 | 0.09 | 63 | 1011.6 |
| 20260507150326 | 59 | 324 | 7.0 | 12.0 | 0.00 | 0.09 | 0.09 | 65 | 1011.6 |
| 20260507145820 | 58 | 19 | 5.0 | 9.0 | 0.00 | 0.09 | 0.09 | 68 | 1011.6 |
| 20260507144820 | 57 | 351 | 4.0 | 7.0 | 0.00 | 0.09 | 0.09 | 70 | 1011.7 |
| 20260507144331 | 57 | 15 | 3.0 | 9.0 | 0.00 | 0.09 | 0.09 | 70 | 1011.7 |
| 20260507143823 | 56 | 336 | 4.0 | 10.0 | 0.00 | 0.09 | 0.09 | 71 | 1011.7 |
| 20260507143315 | 56 | 292 | 3.0 | 10.0 | 0.00 | 0.09 | 0.09 | 71 | 1011.6 |
| 20260507142825 | 56 | 336 | 6.0 | 10.0 | 0.00 | 0.09 | 0.09 | 72 | 1011.6 |
| 20260507142341 | 55 | 350 | 5.0 | 10.0 | 0.00 | 0.09 | 0.09 | 73 | 1011.6 |
| 20260507141832 | 55 | 340 | 2.0 | 8.0 | 0.00 | 0.09 | 0.09 | 74 | 1011.6 |
| 20260507141323 | 55 | 355 | 3.0 | 11.0 | 0.00 | 0.09 | 0.09 | 74 | 1011.6 |
| 20260507140833 | 54 | 343 | 5.0 | 11.0 | 0.00 | 0.09 | 0.09 | 75 | 1011.7 |
| 20260507140324 | 54 | 323 | 4.0 | 12.0 | 0.00 | 0.09 | 0.09 | 75 | 1011.7 |
| 20260507135836 | 54 | 321 | 5.0 | 13.0 | 0.00 | 0.09 | 0.09 | 75 | 1011.7 |
| 20260507135326 | 54 | 336 | 3.0 | 13.0 | 0.00 | 0.09 | 0.09 | 76 | 1011.5 |
| 20260507134819 | 54 | 334 | 4.0 | 11.0 | 0.00 | 0.09 | 0.09 | 76 | 1011.5 |
| 20260507134329 | 54 | 315 | 5.0 | 11.0 | 0.00 | 0.09 | 0.09 | 77 | 1011.5 |
| 20260507133827 | 54 | 331 | 4.0 | 11.0 | 0.00 | 0.09 | 0.09 | 78 | 1011.3 |
| 20260507133318 | 53 | 342 | 4.0 | 11.0 | 0.00 | 0.09 | 0.09 | 78 | 1011.3 |
| 20260507132830 | 53 | 340 | 3.0 | 11.0 | 0.00 | 0.09 | 0.09 | 79 | 1011.6 |
| 20260507132322 | 53 | 311 | 5.0 | 11.0 | 0.00 | 0.09 | 0.09 | 79 | 1011.6 |
| 20260507131852 | 53 | 309 | 3.0 | 11.0 | 0.00 | 0.09 | 0.09 | 80 | 1011.7 |
| 20260507131322 | 53 | 360 | 4.0 | 11.0 | 0.00 | 0.09 | 0.09 | 81 | 1011.8 |
| 20260507130816 | 53 | 275 | 3.0 | 11.0 | 0.00 | 0.09 | 0.09 | 82 | 1011.6 |
| 20260507130331 | 53 | 360 | 5.0 | 9.0 | 0.00 | 0.09 | 0.09 | 83 | 1011.4 |
| 20260507125821 | 53 | 315 | 3.0 | 11.0 | 0.00 | 0.09 | 0.09 | 83 | 1011.5 |
| 20260507125317 | 52 | 17 | 5.0 | 11.0 | 0.00 | 0.09 | 0.09 | 83 | 1011.6 |
| 20260507124828 | 52 | 22 | 6.0 | 11.0 | 0.00 | 0.09 | 0.09 | 84 | 1011.5 |
| 20260507124323 | 52 | 355 | 6.0 | 10.0 | 0.00 | 0.09 | 0.09 | 84 | 1011.5 |
| 20260507123816 | 52 | 9 | 4.0 | 10.0 | 0.00 | 0.09 | 0.09 | 85 | 1011.6 |
| 20260507123328 | 52 | 323 | 4.0 | 10.0 | 0.00 | 0.09 | 0.09 | 86 | 1011.6 |
| 20260507122822 | 52 | 323 | 4.0 | 11.0 | 0.00 | 0.09 | 0.09 | 86 | 1011.8 |
| 20260507122334 | 52 | 306 | 6.0 | 11.0 | 0.00 | 0.09 | 0.09 | 86 | 1011.7 |
| 20260507121848 | 52 | 329 | 2.0 | 9.0 | 0.00 | 0.09 | 0.09 | 87 | 1011.8 |
| 20260507121340 | 52 | 5 | 1.0 | 8.0 | 0.00 | 0.09 | 0.09 | 87 | 1011.7 |
| 20260507120849 | 52 | 298 | 3.0 | 9.0 | 0.00 | 0.09 | 0.09 | 87 | 1011.8 |
| 20260507120324 | 52 | 355 | 4.0 | 9.0 | 0.00 | 0.09 | 0.09 | 87 | 1011.5 |
| 20260507115855 | 52 | 306 | 3.0 | 9.0 | 0.00 | 0.09 | 0.09 | 88 | 1011.4 |
| 20260507115325 | 52 | 332 | 5.0 | 8.0 | 0.00 | 0.09 | 0.09 | 88 | 1011.4 |
| 20260507114820 | 52 | 298 | 3.0 | 8.0 | 0.00 | 0.09 | 0.09 | 88 | 1011.4 |
| 20260507114331 | 52 | 295 | 1.0 | 8.0 | 0.00 | 0.09 | 0.09 | 88 | 1011.2 |
| 20260507113822 | 51 | 283 | 4.0 | 8.0 | 0.00 | 0.09 | 0.09 | 88 | 1011.1 |
| 20260507113314 | 51 | 299 | 2.0 | 6.0 | 0.00 | 0.09 | 0.09 | 88 | 1011.2 |
| 20260507112825 | 51 | 355 | 2.0 | 8.0 | 0.00 | 0.09 | 0.09 | 88 | 1011.1 |
| 20260507112317 | 51 | 324 | 4.0 | 8.0 | 0.00 | 0.09 | 0.09 | 88 | 1011.0 |
| 20260507111835 | 51 | 325 | 3.0 | 6.0 | 0.00 | 0.09 | 0.09 | 88 | 1011.1 |
| 20260507111324 | 51 | 326 | 2.0 | 5.0 | 0.00 | 0.09 | 0.09 | 88 | 1011.1 |
| 20260507110815 | 51 | 348 | 4.0 | 6.0 | 0.00 | 0.09 | 0.09 | 88 | 1010.9 |
| 20260507110326 | 51 | 333 | 4.0 | 6.0 | 0.00 | 0.09 | 0.09 | 87 | 1010.7 |
| 20260507105838 | 51 | 344 | 0.0 | 3.0 | 0.00 | 0.09 | 0.09 | 87 | 1010.9 |
| 20260507105329 | 51 | 312 | 2.0 | 4.0 | 0.00 | 0.09 | 0.09 | 87 | 1010.7 |
| 20260507104840 | 51 | 32 | 1.0 | 5.0 | 0.00 | 0.09 | 0.09 | 87 | 1010.7 |
| 20260507104351 | 51 | 322 | 2.0 | 5.0 | 0.00 | 0.09 | 0.09 | 87 | 1010.8 |
| 20260507103825 | 51 | 346 | 1.0 | 5.0 | 0.00 | 0.09 | 0.09 | 87 | 1010.9 |
| 20260507103319 | 51 | 323 | 1.0 | 9.0 | 0.00 | 0.09 | 0.09 | 87 | 1010.9 |
| 20260507102814 | 51 | 328 | 1.0 | 6.0 | 0.00 | 0.09 | 0.09 | 87 | 1010.6 |
| 20260507102326 | 51 | 318 | 2.0 | 7.0 | 0.00 | 0.09 | 0.09 | 87 | 1010.5 |
| 20260507101820 | 51 | 323 | 3.0 | 7.0 | 0.00 | 0.09 | 0.09 | 87 | 1010.3 |
| 20260507101331 | 51 | 5 | 3.0 | 10.0 | 0.00 | 0.09 | 0.09 | 87 | 1010.3 |
| 20260507100825 | 51 | 330 | 5.0 | 12.0 | 0.00 | 0.09 | 0.09 | 86 | 1010.2 |
| 20260507100315 | 51 | 336 | 4.0 | 8.0 | 0.00 | 0.09 | 0.09 | 87 | 1010.1 |
| 20260507095828 | 51 | 307 | 3.0 | 11.0 | 0.00 | 0.09 | 0.09 | 87 | 1010.1 |
| 20260507095319 | 51 | 327 | 3.0 | 8.0 | 0.00 | 0.09 | 0.09 | 87 | 1010.1 |
| 20260507094833 | 51 | 296 | 4.0 | 8.0 | 0.00 | 0.09 | 0.09 | 87 | 1010.1 |
| 20260507094325 | 51 | 346 | 1.0 | 7.0 | 0.00 | 0.09 | 0.09 | 87 | 1010.2 |
| 20260507093816 | 51 | 355 | 3.0 | 10.0 | 0.00 | 0.09 | 0.09 | 87 | 1010.3 |
| 20260507093330 | 51 | 329 | 4.0 | 11.0 | 0.00 | 0.09 | 0.09 | 87 | 1010.0 |
| 20260507092821 | 51 | 328 | 4.0 | 11.0 | 0.00 | 0.09 | 0.09 | 87 | 1009.8 |
| 20260507092333 | 51 | 329 | 7.0 | 11.0 | 0.00 | 0.09 | 0.09 | 87 | 1010.0 |
| 20260507091843 | 51 | 321 | 3.0 | 10.0 | 0.00 | 0.09 | 0.09 | 87 | 1010.0 |
| 20260507091314 | 51 | 332 | 5.0 | 10.0 | 0.00 | 0.09 | 0.09 | 87 | 1009.9 |
| 20260507090827 | 52 | 331 | 5.0 | 9.0 | 0.01 | 0.09 | 0.09 | 87 | 1010.0 |
| 20260507090323 | 52 | 337 | 4.0 | 7.0 | 0.01 | 0.09 | 0.09 | 87 | 1009.9 |
| 20260507085834 | 52 | 347 | 3.0 | 7.0 | 0.01 | 0.09 | 0.09 | 88 | 1010.0 |
| 20260507085348 | 52 | 355 | 5.0 | 11.0 | 0.01 | 0.09 | 0.09 | 87 | 1009.9 |
| 20260507084819 | 52 | 320 | 5.0 | 11.0 | 0.01 | 0.09 | 0.09 | 88 | 1009.8 |
| 20260507084353 | 52 | 308 | 2.0 | 11.0 | 0.01 | 0.09 | 0.09 | 88 | 1009.7 |
| 20260507083844 | 52 | 340 | 6.0 | 13.0 | 0.01 | 0.09 | 0.09 | 88 | 1009.9 |
| 20260507083334 | 52 | 11 | 5.0 | 13.0 | 0.01 | 0.09 | 0.09 | 88 | 1009.8 |
| 20260507082825 | 52 | 317 | 3.0 | 11.0 | 0.01 | 0.09 | 0.09 | 88 | 1009.7 |
| 20260507082316 | 52 | 270 | 5.0 | 11.0 | 0.01 | 0.09 | 0.09 | 88 | 1009.7 |
| 20260507081828 | 52 | 332 | 3.0 | 13.0 | 0.01 | 0.09 | 0.09 | 88 | 1009.7 |
| 20260507081323 | 53 | 312 | 7.0 | 13.0 | 0.01 | 0.09 | 0.09 | 88 | 1009.6 |
| 20260507080815 | 53 | 295 | 3.0 | 10.0 | 0.01 | 0.08 | 0.08 | 88 | 1009.6 |
| 20260507080326 | 53 | 334 | 4.0 | 10.0 | 0.01 | 0.08 | 0.08 | 87 | 1009.2 |
| 20260507075817 | 53 | 271 | 4.0 | 9.0 | 0.01 | 0.08 | 0.08 | 87 | 1010.2 |
| 20260507075329 | 53 | 337 | 4.0 | 11.0 | 0.03 | 0.08 | 0.08 | 87 | 1009.7 |
| 20260507074821 | 53 | 271 | 5.0 | 9.0 | 0.04 | 0.08 | 0.08 | 87 | 1009.6 |
| 20260507074332 | 53 | 333 | 2.0 | 10.0 | 0.06 | 0.08 | 0.08 | 87 | 1009.9 |
| 20260507073823 | 53 | 339 | 3.0 | 10.0 | 0.07 | 0.08 | 0.08 | 87 | 1009.6 |
| 20260507073336 | 53 | 302 | 5.0 | 10.0 | 0.07 | 0.08 | 0.08 | 86 | 1009.4 |
| 20260507072830 | 53 | 319 | 5.0 | 13.0 | 0.07 | 0.08 | 0.08 | 86 | 1009.5 |
| 20260507072324 | 53 | 332 | 8.0 | 13.0 | 0.07 | 0.08 | 0.08 | 86 | 1009.4 |
| 20260507071815 | 54 | 298 | 5.0 | 18.0 | 0.07 | 0.08 | 0.08 | 87 | 1009.3 |
| 20260507071328 | 55 | 349 | 7.0 | 14.0 | 0.08 | 0.08 | 0.08 | 87 | 1009.5 |
| 20260507070818 | 56 | 12 | 6.0 | 12.0 | 0.07 | 0.07 | 0.07 | 87 | 1009.2 |
| 20260507070330 | 56 | 10 | 3.0 | 10.0 | 0.07 | 0.07 | 0.07 | 87 | 1009.5 |
| 20260507065822 | 57 | 355 | 2.0 | 10.0 | 0.07 | 0.07 | 0.07 | 86 | 1009.5 |
| 20260507065333 | 57 | 5 | 3.0 | 9.0 | 0.05 | 0.05 | 0.05 | 86 | 1008.9 |
| 20260507064829 | 58 | 302 | 3.0 | 5.0 | 0.04 | 0.04 | 0.04 | 86 | 1009.5 |
| 20260507064319 | 58 | 298 | 2.0 | 7.0 | 0.02 | 0.02 | 0.02 | 85 | 1009.2 |
| 20260507063834 | 58 | 328 | 2.0 | 7.0 | 0.01 | 0.01 | 0.01 | 85 | 1008.9 |
| 20260507063325 | 58 | 283 | 3.0 | 7.0 | 0.01 | 0.01 | 0.01 | 85 | 1008.8 |
| 20260507062816 | 58 | 288 | 4.0 | 8.0 | 0.01 | 0.01 | 0.01 | 84 | 1008.7 |
| 20260507062331 | 59 | 350 | 3.0 | 8.0 | 0.01 | 0.01 | 0.01 | 83 | 1008.5 |
| 20260507061823 | 59 | 274 | 2.0 | 6.0 | 0.01 | 0.01 | 0.01 | 83 | 1009.1 |
| 20260507061334 | 60 | 314 | 2.0 | 7.0 | 0.00 | 0.00 | 0.00 | 83 | 1009.4 |
| 20260507060830 | 60 | 319 | 3.0 | 8.0 | 0.00 | 0.00 | 0.00 | 82 | 1009.1 |
| 20260507060341 | 60 | 331 | 4.0 | 7.0 | 0.00 | 0.00 | 0.00 | 82 | 1009.0 |
| 20260507055855 | 60 | 291 | 2.0 | 5.0 | 0.00 | 0.00 | 0.00 | 81 | 1008.7 |
| 20260507055325 | 61 | 355 | 2.0 | 8.0 | 0.00 | 0.00 | 0.00 | 81 | 1008.5 |
| 20260507054817 | 61 | 297 | 1.0 | 9.0 | 0.00 | 0.00 | 0.00 | 81 | 1008.5 |
| 20260507054329 | 61 | 290 | 3.0 | 9.0 | 0.00 | 0.00 | 0.00 | 81 | 1008.5 |
| 20260507053819 | 61 | 288 | 2.0 | 8.0 | 0.00 | 0.00 | 0.00 | 80 | 1008.8 |
| 20260507053352 | 61 | 331 | 3.0 | 8.0 | 0.00 | 0.00 | 0.00 | 80 | 1008.7 |
| 20260507052822 | 62 | 302 | 1.0 | 4.0 | 0.00 | 0.00 | 0.00 | 79 | 1008.6 |
| 20260507052333 | 62 | 350 | 1.0 | 6.0 | 0.00 | 0.00 | 0.00 | 79 | 1008.5 |
| 20260507051829 | 62 | 340 | 4.0 | 6.0 | 0.00 | 0.00 | 0.00 | 79 | 1008.4 |
| 20260507051320 | 62 | 347 | 3.0 | 8.0 | 0.00 | 0.00 | 0.00 | 79 | 1008.3 |
| 20260507050832 | 62 | 301 | 3.0 | 13.0 | 0.00 | 0.00 | 0.00 | 78 | 1008.6 |
| 20260507050323 | 63 | 320 | 7.0 | 13.0 | 0.00 | 0.00 | 0.00 | 78 | 1008.6 |
| 20260507045815 | 63 | 326 | 3.0 | 18.0 | 0.00 | 0.00 | 0.00 | 78 | 1008.6 |
| 20260507045326 | 64 | 328 | 9.0 | 18.0 | 0.00 | 0.00 | 0.00 | 80 | 1008.7 |
| 20260507044816 | 65 | 11 | 7.0 | 10.0 | 0.00 | 0.00 | 0.00 | 82 | 1008.7 |
| 20260507044328 | 66 | 348 | 3.0 | 8.0 | 0.00 | 0.00 | 0.00 | 82 | 1008.4 |
| 20260507043824 | 66 | 319 | 4.0 | 11.0 | 0.00 | 0.00 | 0.00 | 82 | 1008.4 |
| 20260507043315 | 66 | 278 | 2.0 | 5.0 | 0.00 | 0.00 | 0.00 | 81 | 1008.4 |
| 20260507042828 | 66 | 306 | 1.0 | 6.0 | 0.00 | 0.00 | 0.00 | 81 | 1008.3 |
| 20260507042319 | 66 | 285 | 2.0 | 6.0 | 0.00 | 0.00 | 0.00 | 81 | 1008.3 |
| 20260507041813 | 66 | 294 | 3.0 | 8.0 | 0.00 | 0.00 | 0.00 | 81 | 1008.3 |
| 20260507041328 | 66 | 284 | 4.0 | 8.0 | 0.00 | 0.00 | 0.00 | 82 | 1008.4 |
| 20260507040840 | 66 | 272 | 5.0 | 10.0 | 0.00 | 0.00 | 0.00 | 82 | 1008.6 |
| 20260507040329 | 66 | 255 | 5.0 | 9.0 | 0.00 | 0.00 | 0.00 | 82 | 1008.6 |
| 20260507035820 | 66 | 271 | 3.0 | 8.0 | 0.00 | 0.00 | 0.00 | 82 | 1008.4 |
| 20260507035334 | 66 | 282 | 4.0 | 8.0 | 0.00 | 0.00 | 0.00 | 82 | 1008.4 |
| 20260507034826 | 66 | 254 | 5.0 | 8.0 | 0.00 | 0.00 | 0.00 | 82 | 1008.1 |
| 20260507034317 | 66 | 210 | 4.0 | 9.0 | 0.00 | 0.00 | 0.00 | 82 | 1008.2 |
| 20260507033320 | 66 | 246 | 3.0 | 7.0 | 0.00 | 0.00 | 0.00 | 82 | 1008.2 |
| 20260507032832 | 66 | 219 | 3.0 | 7.0 | 0.00 | 0.00 | 0.00 | 82 | 1008.0 |
| 20260507032324 | 66 | 248 | 2.0 | 7.0 | 0.00 | 0.00 | 0.00 | 83 | 1008.0 |
| 20260507031815 | 66 | 236 | 3.0 | 5.0 | 0.00 | 0.00 | 0.00 | 83 | 1008.3 |
| 20260507031331 | 66 | 221 | 1.0 | 5.0 | 0.00 | 0.00 | 0.00 | 83 | 1008.1 |
| 20260507030822 | 66 | 226 | 3.0 | 6.0 | 0.00 | 0.00 | 0.00 | 83 | 1008.3 |
| 20260507030354 | 65 | 304 | 3.0 | 6.0 | 0.00 | 0.00 | 0.00 | 84 | 1008.4 |
| 20260507025824 | 65 | 227 | 1.0 | 6.0 | 0.00 | 0.00 | 0.00 | 84 | 1008.3 |
| 20260507025316 | 65 | 246 | 2.0 | 3.0 | 0.00 | 0.00 | 0.00 | 84 | 1008.5 |
| 20260507024848 | 65 | 261 | 2.0 | 3.0 | 0.00 | 0.00 | 0.00 | 84 | 1008.4 |
| 20260507024318 | 65 | 209 | 2.0 | 4.0 | 0.00 | 0.00 | 0.00 | 84 | 1008.5 |
| 20260507023829 | 65 | 219 | 2.0 | 9.0 | 0.00 | 0.00 | 0.00 | 84 | 1008.4 |
| 20260507023321 | 65 | 215 | 2.0 | 9.0 | 0.00 | 0.00 | 0.00 | 85 | 1008.3 |
| 20260507022817 | 65 | 240 | 2.0 | 6.0 | 0.00 | 0.00 | 0.00 | 85 | 1008.3 |
| 20260507022349 | 65 | 208 | 2.0 | 6.0 | 0.00 | 0.00 | 0.00 | 85 | 1008.5 |
| 20260507021822 | 65 | 196 | 2.0 | 5.0 | 0.00 | 0.00 | 0.00 | 85 | 1008.6 |
| 20260507021333 | 65 | 228 | 1.0 | 2.0 | 0.00 | 0.00 | 0.00 | 85 | 1009.0 |
| 20260507020825 | 65 | 225 | 1.0 | 4.0 | 0.00 | 0.00 | 0.00 | 85 | 1009.0 |
| 20260507020316 | 65 | 220 | 2.0 | 5.0 | 0.00 | 0.00 | 0.00 | 85 | 1008.9 |
| 20260507015832 | 64 | 223 | 1.0 | 7.0 | 0.00 | 0.00 | 0.00 | 85 | 1008.9 |
| 20260507015323 | 65 | 223 | 4.0 | 7.0 | 0.00 | 0.00 | 0.00 | 85 | 1009.0 |
| 20260507014833 | 64 | 190 | 2.0 | 5.0 | 0.00 | 0.00 | 0.00 | 85 | 1008.9 |
| 20260507014329 | 65 | 232 | 1.0 | 4.0 | 0.00 | 0.00 | 0.00 | 85 | 1009.0 |
| 20260507013824 | 65 | 206 | 2.0 | 5.0 | 0.00 | 0.00 | 0.00 | 85 | 1008.9 |
| 20260507013315 | 65 | 201 | 2.0 | 5.0 | 0.00 | 0.00 | 0.00 | 85 | 1008.8 |
| 20260507012825 | 65 | 214 | 2.0 | 4.0 | 0.00 | 0.00 | 0.00 | 84 | 1008.8 |
| 20260507012317 | 65 | 197 | 2.0 | 6.0 | 0.00 | 0.00 | 0.00 | 84 | 1008.9 |
| 20260507011848 | 65 | 225 | 2.0 | 6.0 | 0.00 | 0.00 | 0.00 | 84 | 1008.9 |
| 20260507011319 | 65 | 184 | 2.0 | 5.0 | 0.00 | 0.00 | 0.00 | 84 | 1008.8 |
| 20260507010831 | 65 | 182 | 3.0 | 5.0 | 0.00 | 0.00 | 0.00 | 84 | 1008.7 |
| 20260507010342 | 65 | 201 | 2.0 | 6.0 | 0.00 | 0.00 | 0.00 | 84 | 1008.5 |
| 20260507005815 | 65 | 193 | 3.0 | 5.0 | 0.00 | 0.00 | 0.00 | 83 | 1008.4 |
| 20260507005330 | 65 | 190 | 2.0 | 6.0 | 0.00 | 0.00 | 0.00 | 83 | 1008.4 |
| 20260507004821 | 65 | 165 | 2.0 | 6.0 | 0.00 | 0.00 | 0.00 | 83 | 1008.4 |
| 20260507004316 | 65 | 194 | 2.0 | 4.0 | 0.00 | 0.00 | 0.00 | 83 | 1008.5 |
| 20260507003831 | 65 | 217 | 2.0 | 4.0 | 0.00 | 0.00 | 0.00 | 83 | 1008.5 |
| 20260507003322 | 65 | 178 | 2.0 | 5.0 | 0.00 | 0.00 | 0.00 | 83 | 1008.5 |
| 20260507002833 | 65 | 171 | 1.0 | 3.0 | 0.00 | 0.00 | 0.00 | 82 | 1008.4 |
| 20260507002325 | 65 | 198 | 1.0 | 4.0 | 0.00 | 0.00 | 0.00 | 82 | 1008.3 |
| 20260507001836 | 66 | 182 | 2.0 | 4.0 | 0.00 | 0.00 | 0.00 | 82 | 1008.3 |
| 20260507001326 | 66 | 180 | 1.0 | 6.0 | 0.00 | 0.00 | 0.00 | 81 | 1008.3 |
| 20260507000822 | 66 | 181 | 3.0 | 8.0 | 0.00 | 0.00 | 0.00 | 81 | 1008.3 |
| 20260507000335 | 66 | 194 | 3.0 | 8.0 | 0.00 | 0.00 | 0.00 | 81 | 1008.2 |
| 20260506235825 | 66 | 174 | 3.0 | 7.0 | 0.00 | 0.00 | 0.00 | 80 | 1008.3 |
| 20260506235316 | 66 | 204 | 4.0 | 9.0 | 0.00 | 0.00 | 0.00 | 80 | 1008.2 |
| 20260506234828 | 66 | 188 | 4.0 | 9.0 | 0.00 | 0.00 | 0.00 | 80 | 1008.1 |
| 20260506234320 | 67 | 177 | 4.0 | 7.0 | 0.00 | 0.00 | 0.00 | 79 | 1008.0 |
| 20260506233832 | 67 | 202 | 2.0 | 7.0 | 0.00 | 0.00 | 0.00 | 79 | 1008.1 |
| 20260506233324 | 67 | 194 | 1.0 | 8.0 | 0.00 | 0.00 | 0.00 | 79 | 1008.1 |
| 20260506232818 | 67 | 141 | 2.0 | 8.0 | 0.00 | 0.00 | 0.00 | 78 | 1008.0 |
| 20260506232331 | 67 | 160 | 2.0 | 6.0 | 0.00 | 0.00 | 0.00 | 77 | 1007.9 |
| 20260506231822 | 67 | 154 | 2.0 | 6.0 | 0.00 | 0.00 | 0.00 | 76 | 1007.9 |
| 20260506231353 | 68 | 201 | 3.0 | 6.0 | 0.00 | 0.00 | 0.00 | 75 | 1008.0 |
| 20260506230823 | 68 | 190 | 2.0 | 7.0 | 0.00 | 0.00 | 0.00 | 73 | 1008.1 |
| 20260506230318 | 69 | 189 | 3.0 | 7.0 | 0.00 | 0.00 | 0.00 | 72 | 1008.0 |
| 20260506225832 | 70 | 205 | 2.0 | 11.0 | 0.00 | 0.00 | 0.00 | 71 | 1008.0 |
| 20260506225323 | 70 | 259 | 2.0 | 11.0 | 0.00 | 0.00 | 0.00 | 72 | 1007.8 |
| 20260506224819 | 70 | 300 | 2.0 | 10.0 | 0.00 | 0.00 | 0.00 | 72 | 1007.8 |
| 20260506224350 | 70 | 298 | 5.0 | 8.0 | 0.00 | 0.00 | 0.00 | 72 | 1007.8 |
| 20260506223820 | 70 | 257 | 2.0 | 11.0 | 0.00 | 0.00 | 0.00 | 73 | 1007.8 |